When you browse on this site, cookies collect data to enhance your experience and personalize the content and advertising you see.
Visit our Privacy Policy to learn more. By continuing to use the site, you agree to this use of cookies and data.
  • In Switzerland
  • List of Countries
  • For 7 days
  • Water Temperature
  • Satellite Maps
  • Weather Map
  • Weather Widgets
  • user-avatar
    Login

    Hourly Weather Tomakhiv

    Today, 25 April, Thursday

    Time Temperature Precipitation Wind Pressure Humidity
    00:00 +10°C° 0 mm 4 mps 750 mmHg 63%
    01:00 +10°C° 0 mm 4 mps 750 mmHg 64%
    02:00 +8°C° 0 mm 4 mps 750 mmHg 64%
    03:00 +8°C° 0 mm 4 mps 750 mmHg 65%
    04:00 +8°C° 0 mm 4 mps 750 mmHg 66%
    05:00 +7°C° 0 mm 4 mps 750 mmHg 66%
    06:00 +9°C° 0 mm 5 mps 750 mmHg 62%
    07:00 +10°C° 0 mm 6 mps 750 mmHg 58%
    08:00 +11°C° 0 mm 6 mps 750 mmHg 54%
    09:00 +14°C° 0 mm 6 mps 750 mmHg 51%
    10:00 +15°C° 0 mm 6 mps 750 mmHg 48%
    11:00 +17°C° 0 mm 6 mps 750 mmHg 45%
    12:00 +19°C° 0 mm 6 mps 749 mmHg 45%
    13:00 +20°C° 0 mm 6 mps 749 mmHg 45%
    14:00 +21°C° 0 mm 6 mps 749 mmHg 44%
    15:00 +20°C° 0 mm 6 mps 749 mmHg 47%
    16:00 +20°C° 0 mm 5 mps 748 mmHg 49%
    17:00 +20°C° 0 mm 5 mps 748 mmHg 51%
    18:00 +19°C° 0 mm 5 mps 748 mmHg 56%
    19:00 +17°C° 0 mm 4 mps 748 mmHg 61%
    20:00 +15°C° 0 mm 4 mps 747 mmHg 66%
    21:00 +14°C° 0 mm 4 mps 747 mmHg 68%
    22:00 +13°C° 0 mm 4 mps 747 mmHg 70%
    23:00 +12°C° 0 mm 4 mps 747 mmHg 72%

    Tomorrow, 26 April, Friday

    Time Temperature Precipitation Wind Pressure Humidity
    00:00 +12°C° 0 mm 4 mps 747 mmHg 73%
    01:00 +11°C° 0 mm 4 mps 747 mmHg 75%
    02:00 +11°C° 0 mm 3 mps 747 mmHg 76%
    03:00 +11°C° 0 mm 4 mps 747 mmHg 77%
    04:00 +10°C° 0 mm 4 mps 746 mmHg 78%
    05:00 +10°C° 0 mm 4 mps 746 mmHg 79%
    06:00 +11°C° 0 mm 4 mps 746 mmHg 75%
    07:00 +12°C° 0 mm 4 mps 746 mmHg 70%
    08:00 +14°C° 0 mm 5 mps 746 mmHg 66%
    09:00 +16°C° 0 mm 5 mps 746 mmHg 62%
    10:00 +17°C° 0 mm 5 mps 746 mmHg 59%
    11:00 +20°C° 0 mm 5 mps 746 mmHg 55%
    12:00 +22°C° 0 mm 5 mps 745 mmHg 53%
    13:00 +23°C° 0 mm 5 mps 745 mmHg 50%
    14:00 +25°C° 0 mm 5 mps 745 mmHg 47%
    15:00 +25°C° 0 mm 5 mps 744 mmHg 49%
    16:00 +23°C° 0 mm 5 mps 744 mmHg 50%
    17:00 +23°C° 0 mm 5 mps 743 mmHg 52%
    18:00 +22°C° 0.1 mm 5 mps 743 mmHg 58%
    19:00 +20°C° 0.1 mm 5 mps 743 mmHg 65%
    20:00 +17°C° 0.1 mm 5 mps 743 mmHg 71%
    21:00 +17°C° 1.1 mm 5 mps 743 mmHg 75%
    22:00 +16°C° 1.1 mm 5 mps 742 mmHg 78%
    23:00 +15°C° 1.1 mm 5 mps 742 mmHg 82%

    Day after tomorrow, 27 April, Saturday

    Time Temperature Precipitation Wind Pressure Humidity
    00:00 +15°C° 0.8 mm 5 mps 742 mmHg 82%
    01:00 +15°C° 0.8 mm 5 mps 742 mmHg 83%
    02:00 +14°C° 0.8 mm 5 mps 742 mmHg 84%
    03:00 +14°C° 0.6 mm 5 mps 741 mmHg 85%
    04:00 +14°C° 0.6 mm 4 mps 741 mmHg 85%
    05:00 +13°C° 0.6 mm 4 mps 741 mmHg 86%
    06:00 +14°C° 0 mm 4 mps 741 mmHg 82%
    07:00 +15°C° 0 mm 4 mps 741 mmHg 78%
    08:00 +18°C° 0 mm 4 mps 741 mmHg 74%
    09:00 +20°C° 0.2 mm 4 mps 741 mmHg 69%
    10:00 +22°C° 0.2 mm 4 mps 741 mmHg 64%
    11:00 +23°C° 0.2 mm 4 mps 741 mmHg 59%
    12:00 +25°C° 0 mm 4 mps 740 mmHg 54%
    13:00 +26°C° 0 mm 4 mps 740 mmHg 50%
    14:00 +27°C° 0 mm 3 mps 740 mmHg 46%
    15:00 +27°C° 0 mm 3 mps 740 mmHg 47%
    16:00 +26°C° 0 mm 3 mps 739 mmHg 49%
    17:00 +26°C° 0 mm 2 mps 739 mmHg 50%
    18:00 +24°C° 0.5 mm 2 mps 739 mmHg 58%
    19:00 +21°C° 0.5 mm 2 mps 739 mmHg 65%
    20:00 +19°C° 0.5 mm 2 mps 739 mmHg 73%
    21:00 +19°C° 1.3 mm 1 mps 739 mmHg 76%
    22:00 +18°C° 1.3 mm 1 mps 739 mmHg 78%
    23:00 +18°C° 1.3 mm 1 mps 739 mmHg 81%

    28 April, Sunday

    Time Temperature Precipitation Wind Pressure Humidity
    00:00 +16°C° 0 mm 1 mps 739 mmHg 80%
    01:00 +15°C° 0 mm 2 mps 739 mmHg 79%
    02:00 +15°C° 0 mm 2 mps 739 mmHg 78%
    03:00 +14°C° 0 mm 2 mps 739 mmHg 78%
    04:00 +13°C° 0 mm 2 mps 739 mmHg 78%
    05:00 +11°C° 0 mm 3 mps 738 mmHg 79%
    06:00 +13°C° 0 mm 2 mps 739 mmHg 74%
    07:00 +15°C° 0 mm 2 mps 739 mmHg 69%
    08:00 +16°C° 0 mm 2 mps 739 mmHg 64%
    09:00 +17°C° 0 mm 2 mps 739 mmHg 60%
    10:00 +19°C° 0 mm 3 mps 739 mmHg 55%
    11:00 +21°C° 0 mm 3 mps 739 mmHg 50%
    12:00 +21°C° 0 mm 3 mps 739 mmHg 49%
    13:00 +22°C° 0 mm 4 mps 739 mmHg 47%
    14:00 +23°C° 0 mm 4 mps 739 mmHg 46%
    15:00 +23°C° 0 mm 4 mps 739 mmHg 48%
    16:00 +22°C° 0 mm 3 mps 739 mmHg 51%
    17:00 +22°C° 0 mm 3 mps 739 mmHg 54%
    18:00 +20°C° 0 mm 3 mps 739 mmHg 65%
    19:00 +18°C° 0 mm 3 mps 739 mmHg 76%
    20:00 +14°C° 0 mm 3 mps 739 mmHg 87%
    21:00 +13°C° 0.2 mm 3 mps 740 mmHg 90%
    22:00 +12°C° 0.2 mm 3 mps 740 mmHg 93%
    23:00 +11°C° 0.2 mm 3 mps 740 mmHg 95%

    29 April, Monday

    Time Temperature Precipitation Wind Pressure Humidity
    00:00 +12°C° 0.2 mm 2 mps 740 mmHg 95%
    01:00 +12°C° 0.2 mm 2 mps 740 mmHg 96%
    02:00 +10°C° 0.2 mm 2 mps 741 mmHg 96%
    03:00 +12°C° 0.1 mm 1 mps 741 mmHg 95%
    04:00 +12°C° 0.1 mm 1 mps 741 mmHg 94%
    05:00 +12°C° 0.1 mm 1 mps 741 mmHg 93%
    06:00 +12°C° 0.2 mm 1 mps 741 mmHg 92%
    07:00 +12°C° 0.2 mm 1 mps 741 mmHg 92%
    08:00 +13°C° 0.2 mm 1 mps 741 mmHg 91%
    09:00 +13°C° 0.6 mm 2 mps 742 mmHg 91%
    10:00 +13°C° 0.6 mm 2 mps 742 mmHg 90%
    11:00 +12°C° 0.6 mm 3 mps 742 mmHg 89%
    12:00 +11°C° 0.4 mm 4 mps 742 mmHg 89%
    13:00 +10°C° 0.4 mm 5 mps 742 mmHg 88%
    14:00 +9°C° 0.4 mm 6 mps 742 mmHg 87%
    15:00 +9°C° 0.2 mm 6 mps 742 mmHg 87%
    16:00 +8°C° 0.2 mm 6 mps 742 mmHg 87%
    17:00 +8°C° 0.2 mm 5 mps 742 mmHg 86%
    18:00 +8°C° 0.1 mm 5 mps 742 mmHg 87%
    19:00 +7°C° 0.1 mm 5 mps 743 mmHg 87%
    20:00 +7°C° 0.1 mm 5 mps 743 mmHg 88%
    21:00 +7°C° 0.1 mm 5 mps 743 mmHg 88%
    22:00 +7°C° 0.1 mm 5 mps 743 mmHg 88%
    23:00 +6°C° 0.1 mm 5 mps 743 mmHg 88%

    30 April, Tuesday

    Time Temperature Precipitation Wind Pressure Humidity
    00:00 +6°C° 0.1 mm 5 mps 743 mmHg 89%
    01:00 +6°C° 0.1 mm 5 mps 743 mmHg 89%
    02:00 +6°C° 0.1 mm 5 mps 743 mmHg 89%
    03:00 +6°C° 0.1 mm 5 mps 743 mmHg 89%
    04:00 +6°C° 0.1 mm 5 mps 743 mmHg 90%
    05:00 +5°C° 0.1 mm 5 mps 743 mmHg 90%
    06:00 +5°C° 0.1 mm 5 mps 743 mmHg 89%
    07:00 +4°C° 0.1 mm 6 mps 744 mmHg 89%
    08:00 +4°C° 0.1 mm 6 mps 744 mmHg 88%
    09:00 +4°C° 0.1 mm 6 mps 744 mmHg 86%
    10:00 +4°C° 0.1 mm 6 mps 744 mmHg 85%
    11:00 +4°C° 0.1 mm 6 mps 744 mmHg 83%
    12:00 +5°C° 0.1 mm 6 mps 744 mmHg 82%
    13:00 +5°C° 0.1 mm 6 mps 744 mmHg 81%
    14:00 +7°C° 0.1 mm 6 mps 744 mmHg 80%
    15:00 +7°C° 0 mm 6 mps 744 mmHg 79%
    16:00 +7°C° 0 mm 6 mps 744 mmHg 78%
    17:00 +8°C° 0 mm 5 mps 744 mmHg 76%
    18:00 +7°C° 0 mm 5 mps 744 mmHg 78%
    19:00 +7°C° 0 mm 4 mps 744 mmHg 79%
    20:00 +7°C° 0 mm 4 mps 744 mmHg 80%
    21:00 +7°C° 0 mm 4 mps 744 mmHg 80%
    22:00 +6°C° 0 mm 4 mps 744 mmHg 81%
    23:00 +6°C° 0 mm 4 mps 744 mmHg 81%
    Show more